W2MMD-13 Weather Reports


Display with metric or nautical units.
time (UTC)temp
F
wind
direction
speed
MPH
gust
MPH
rain 1hr
in
rain 24hr
in
rain mn
in
humidity
%
barometer
mb
20260505124839 68 203 12.0 12.0 0.00 0.00 0.00 61
20260505123839 68 225 9.0 9.0 0.00 0.00 0.00 63
20260505122839 67 225 9.0 9.0 0.00 0.00 0.00 63
20260505121850 66 180 8.0 8.0 0.00 0.00 0.00 65
20260505121839 66 180 7.0 7.0 0.00 0.00 0.00 65
20260505120839 65 203 10.0 10.0 0.00 0.00 0.00 67
20260505115839 65 180 8.0 8.0 0.00 0.00 0.00 68
20260505114850 64 225 9.0 9.0 0.00 0.00 0.00 70
20260505114839 64 225 8.0 8.0 0.00 0.00 0.00 70
20260505113840 63 158 8.0 8.0 0.00 0.00 0.00 72
20260505112840 63 203 5.0 5.0 0.00 0.00 0.00 74
20260505111840 62 180 6.0 6.0 0.00 0.00 0.00 75
20260505110851 62 203 6.0 6.0 0.00 0.00 0.00 76
20260505110840 62 203 5.0 5.0 0.00 0.00 0.00 76
20260505101840 58 180 3.0 3.0 0.00 0.00 0.00 83
20260505100840 58 203 4.0 4.0 0.00 0.00 0.00 83
20260505095852 58 180 6.0 6.0 0.00 0.00 0.00 83
20260505095840 58 180 5.0 5.0 0.00 0.00 0.00 83
20260505094852 58 203 7.0 7.0 0.00 0.00 0.00 83
20260505094840 58 203 5.0 5.0 0.00 0.00 0.00 83
20260505094113 59 180 5.0 5.0 0.00 0.00 0.00 83
20260505094003 59 180 5.0 5.0 0.00 0.00 0.00 83
20260505093840 59 180 5.0 5.0 0.00 0.00 0.00 83
20260505092839 59 158 3.0 3.0 0.00 0.00 0.00 83
20260505091924 59 158 5.0 5.0 0.00 0.00 0.00 82
20260505091839 59 158 5.0 5.0 0.00 0.00 0.00 82
20260505090852 59 180 4.0 4.0 0.00 0.00 0.00 82
20260505090839 59 180 5.0 5.0 0.00 0.00 0.00 82
20260505085839 59 225 3.0 3.0 0.00 0.00 0.00 82
20260505084851 59 113 5.0 5.0 0.00 0.00 0.00 82
20260505084839 59 113 3.0 3.0 0.00 0.00 0.00 82
20260505083839 59 158 3.0 3.0 0.00 0.00 0.00 82
20260505082839 59 158 3.0 3.0 0.00 0.00 0.00 82
20260505081850 59 180 5.0 5.0 0.00 0.00 0.00 82
20260505081839 59 158 3.0 3.0 0.00 0.00 0.00 82
20260505080953 59 180 5.0 5.0 0.00 0.00 0.00 83
20260505080839 59 180 5.0 5.0 0.00 0.00 0.00 83
20260505075850 59 158 3.0 3.0 0.00 0.00 0.00 83
20260505075839 59 203 3.0 3.0 0.00 0.00 0.00 83
20260505074839 58 158 4.0 4.0 0.00 0.00 0.00 83
20260505073852 59 180 4.0 4.0 0.00 0.00 0.00 82
20260505073839 59 180 3.0 3.0 0.00 0.00 0.00 82
20260505072839 59 180 5.0 5.0 0.00 0.00 0.00 82
20260505071839 59 203 5.0 5.0 0.00 0.00 0.00 83
20260505070839 59 180 5.0 5.0 0.00 0.00 0.00 83
20260505065839 59 203 3.0 3.0 0.00 0.00 0.00 82
20260505065314 59 158 4.0 4.0 0.00 0.00 0.00 82
20260505064851 59 158 4.0 4.0 0.00 0.00 0.00 82
20260505064839 59 158 5.0 5.0 0.00 0.00 0.00 82
20260505063839 59 203 5.0 5.0 0.00 0.00 0.00 82
20260505062850 59 203 4.0 4.0 0.00 0.00 0.00 82
20260505062840 59 158 3.0 3.0 0.00 0.00 0.00 82
20260505061852 59 158 9.0 9.0 0.00 0.00 0.00 81
20260505061839 59 180 5.0 5.0 0.00 0.00 0.00 81
20260505060839 59 203 5.0 5.0 0.00 0.00 0.00 81
20260505055956 59 113 5.0 5.0 0.00 0.00 0.00 81
20260505055850 59 113 5.0 5.0 0.00 0.00 0.00 81
20260505055839 59 180 6.0 6.0 0.00 0.00 0.00 81
20260505054839 59 180 5.0 5.0 0.00 0.00 0.00 80
20260505053839 59 180 5.0 5.0 0.00 0.00 0.00 79
20260505052839 60 158 9.0 9.0 0.00 0.00 0.00 78
20260505051840 60 158 4.0 4.0 0.00 0.00 0.00 77
20260505050840 61 135 7.0 7.0 0.00 0.00 0.00 75
20260505040840 60 158 5.0 5.0 0.00 0.00 0.00 73
20260505035840 61 158 11.0 11.0 0.00 0.00 0.00 73
20260505034840 61 180 8.0 8.0 0.00 0.00 0.00 73
20260505033840 61 113 9.0 9.0 0.00 0.00 0.00 73
20260505032840 61 158 5.0 5.0 0.00 0.00 0.00 73
20260505031853 61 158 6.0 6.0 0.00 0.00 0.00 73
20260505031840 61 158 8.0 8.0 0.00 0.00 0.00 73
20260505030840 61 135 6.0 6.0 0.00 0.00 0.00 72
20260505025839 61 135 6.0 6.0 0.00 0.00 0.00 71
20260505024839 61 113 5.0 5.0 0.00 0.00 0.00 69
20260505023839 62 158 8.0 8.0 0.00 0.00 0.00 68
20260505022839 61 113 4.0 4.0 0.00 0.00 0.00 67
20260505021839 62 158 5.0 5.0 0.00 0.00 0.00 65
20260505020850 62 135 5.0 5.0 0.00 0.00 0.00 62
20260505020839 62 135 4.0 4.0 0.00 0.00 0.00 62
20260505015851 62 113 6.0 6.0 0.00 0.00 0.00 58
20260505015839 62 113 5.0 5.0 0.00 0.00 0.00 58
20260505014839 62 135 4.0 4.0 0.00 0.00 0.00 57
20260505013852 63 180 4.0 4.0 0.00 0.00 0.00 56
20260505013839 63 135 4.0 4.0 0.00 0.00 0.00 56
20260505012839 63 113 5.0 5.0 0.00 0.00 0.00 55
20260505011839 64 180 4.0 4.0 0.00 0.00 0.00 55
20260505010923 64 158 5.0 5.0 0.00 0.00 0.00 55
20260505010839 64 158 5.0 5.0 0.00 0.00 0.00 55
20260505005839 63 135 6.0 6.0 0.00 0.00 0.00 57
20260505004839 64 158 1.0 1.0 0.00 0.00 0.00 56
20260505003839 64 158 7.0 7.0 0.00 0.00 0.00 55
20260505002839 64 90 4.0 4.0 0.00 0.00 0.00 55
20260505001839 65 135 5.0 5.0 0.00 0.00 0.00 53
20260505000851 66 158 4.0 4.0 0.00 0.00 0.00 51
20260505000839 66 158 5.0 5.0 0.00 0.00 0.00 51
20260504235839 67 135 4.0 4.0 0.00 0.00 0.00 50
20260504234851 67 158 5.0 5.0 0.00 0.00 0.00 49
20260504234839 68 158 3.0 3.0 0.00 0.00 0.00 49
20260504233850 68 113 4.0 4.0 0.00 0.00 0.00 47
20260504233839 68 113 3.0 3.0 0.00 0.00 0.00 47
20260504232924 69 158 4.0 4.0 0.00 0.00 0.00 45
20260504232839 69 158 4.0 4.0 0.00 0.00 0.00 45
20260504231851 70 158 6.0 6.0 0.00 0.00 0.00 44
20260504231839 70 158 5.0 5.0 0.00 0.00 0.00 44
20260504230840 70 180 3.0 3.0 0.00 0.00 0.00 44
20260504225852 71 225 9.0 9.0 0.00 0.00 0.00 43
20260504225840 71 225 7.0 7.0 0.00 0.00 0.00 43
20260504224840 71 135 4.0 4.0 0.00 0.00 0.00 42
20260504223912 71 135 7.0 7.0 0.00 0.00 0.00 42
20260504223840 71 135 7.0 7.0 0.00 0.00 0.00 42
20260504222852 72 158 3.0 3.0 0.00 0.00 0.00 42
20260504222840 72 158 4.0 4.0 0.00 0.00 0.00 42
20260504221840 72 203 11.0 11.0 0.00 0.00 0.00 40
20260504220840 73 203 9.0 9.0 0.00 0.00 0.00 38
20260504215840 73 225 11.0 11.0 0.00 0.00 0.00 38
20260504214840 73 203 11.0 11.0 0.00 0.00 0.00 38
20260504213840 73 203 12.0 12.0 0.00 0.00 0.00 38
20260504212840 73 180 7.0 7.0 0.00 0.00 0.00 37
20260504211852 73 180 9.0 9.0 0.00 0.00 0.00 37
20260504211840 73 180 11.0 11.0 0.00 0.00 0.00 37
20260504210839 73 225 9.0 9.0 0.00 0.00 0.00 36
20260504205839 73 225 20.0 20.0 0.00 0.00 0.00 37
20260504204839 73 225 11.0 11.0 0.00 0.00 0.00 36
20260504203851 73 180 13.0 13.0 0.00 0.00 0.00 37
20260504203839 73 180 10.0 10.0 0.00 0.00 0.00 37
20260504202852 73 203 12.0 12.0 0.00 0.00 0.00 37
20260504202839 73 203 12.0 12.0 0.00 0.00 0.00 36
20260504201839 74 225 8.0 8.0 0.00 0.00 0.00 36
20260504200852 74 225 11.0 11.0 0.00 0.00 0.00 36
20260504200839 74 180 9.0 9.0 0.00 0.00 0.00 36
20260504195839 73 180 16.0 16.0 0.00 0.00 0.00 35
20260504194942 73 225 12.0 12.0 0.00 0.00 0.00 35
20260504194852 73 225 12.0 12.0 0.00 0.00 0.00 35
20260504194839 73 248 13.0 13.0 0.00 0.00 0.00 35
20260504193839 73 203 12.0 12.0 0.00 0.00 0.00 34
20260504192839 73 180 10.0 10.0 0.00 0.00 0.00 35
20260504191852 72 180 14.0 14.0 0.00 0.00 0.00 35
20260504191839 72 225 13.0 13.0 0.00 0.00 0.00 35
20260504191110 72 203 13.0 13.0 0.00 0.00 0.00 35
20260504190927 72 203 13.0 13.0 0.00 0.00 0.00 35
20260504190839 72 203 13.0 13.0 0.00 0.00 0.00 35
20260504185850 72 203 15.0 15.0 0.00 0.00 0.00 34
20260504185839 73 203 12.0 12.0 0.00 0.00 0.00 34
20260504184839 72 203 14.0 14.0 0.00 0.00 0.00 34
20260504183852 72 203 6.0 6.0 0.00 0.00 0.00 36
20260504183839 72 203 9.0 9.0 0.00 0.00 0.00 36
20260504182839 72 225 11.0 11.0 0.00 0.00 0.00 35
20260504181839 72 225 12.0 12.0 0.00 0.00 0.00 35
20260504180851 72 203 11.0 11.0 0.00 0.00 0.00 36
20260504180839 72 203 10.0 10.0 0.00 0.00 0.00 36
20260504175839 71 248 10.0 10.0 0.00 0.00 0.00 35
20260504174839 71 225 10.0 10.0 0.00 0.00 0.00 36
20260504173839 70 203 12.0 12.0 0.00 0.00 0.00 37
20260504172839 71 180 10.0 10.0 0.00 0.00 0.00 38
20260504171839 71 225 11.0 11.0 0.00 0.00 0.00 36
20260504170839 69 270 15.0 15.0 0.00 0.00 0.00 36
20260504150840 66 203 12.0 12.0 0.00 0.00 0.00 46
20260504140851 63 203 11.0 11.0 0.00 0.00 0.00 56
20260504140839 63 203 9.0 9.0 0.00 0.00 0.00 55